Allegheny County Airport
KAGC : now visible

Airfield :











YOU CAN JOIN US ON...

 
LOGIN :

Register | Disclaimer

   EN    FR    IT 

 









Legend :    VFR   Marginal VFR   IFR   Intensive IFR   Very Intensive IFR
Visi :
Ceiling :
>= 8 km
>= 3000ft
5 to 8 km
1000 to 3000 ft
1500m to 5 km
500 to 1000 ft
800 to 1500m
200 to 500 ft
< 800m
< 200 ft
Symbols :   Thunderstorms  Fog  Heavy snow  Heavy precipitations  Wind > 20 kt






- Airport Elevation : 1252 ft
- IATA code : AGC


KAGC - Allegheny County

CURRENT METAR :
  • 141653Z 19011KT 10SM OVC120 02/M05 A3022 RMK AO2 SLP251 T00221050

EXPIRED METARs :
  • 141553Z 21008KT 10SM OVC110 01/M06 A3023 RMK AO2 SLP257 T00111056

TAF KAGC
Valid from the 14 at 12:00 until the 15 at 12:00 UTC


141130Z 1412/1512 16005KT P6SM OVC120
FM141800 23010G18KT P6SM SCT120
FM142300 23005KT P6SM SCT250



MET'MAP, your aeronautical weather chart ! - Copyright ORBIFLY December 2007 - Disclaimer

ORBIFLY MET'MAP TEAM :

Programming & Development : Alexandra Zaïnal
Concept & Development : Baudouin d'Aumeries
Co-Development & Prog : Marc-Olivier Méhu
Technical & hardware support : Manuel Goepfert

Contact : metmap@orbifly.com




SOURCES & CREDITS :

   NOAA       Earth
Advisory